www.pogodaiklimat.ru

Погода и климат >> Архив погоды >> Таиланд >> Suphan Buri


ПОГОДА в Suphan Buri

  • Прогноз погоды в Suphan Buri
  • Монитор погоды в Suphan Buri
  • Климат города

АРХИВ ПОГОДЫ в Suphan Buri

Время (UTC), дата Ветер
(напр.,м/с)
 
Видим.   Явления Облачность Т
(С)
Тd
(С)
f
(%)
Тe
(С)
Тes
(С)
Комфортность P
(гПа)
Po
(гПа)
Тmin
(С)
Tmax
(С)
R
(мм)
R24
(мм)
S
(см)
18 13.08 Ю 1 10 км 3/0
[Cs]
+29.2 +25.4 80 +43 +43 опасность
перегрева
1009.1 1008.1
21 13.08 штиль 0 10 км 3/0
[Cs]
+28.0 +25.6 87 +41 +41 опасность
перегрева
1008.1 1007.1
00 14.08 штиль 0 12 км 6/0
[Cs]
+27.9 +25.3 86 +41 +42 опасность
перегрева
1009.0 1008.0 +27.2
03 14.08 З 1 12 км 8/0
[Cs]
+31.9 +24.2 64 +44 +59 опасность
перегрева
1009.9 1008.9
06 14.08 З 2 14 км 8/4 600 м
[Cu hum Cs]
+34.9 +24.3 54 +47 +58 опасность
перегрева
1007.9 1006.9
09 14.08 ЮЗ 1 14 км 8/3 600 м
[Cb cap Cs]
+35.9 +25.7 56 +51 +57 опасность
перегрева
1005.4 1004.4
12 14.08 СЗ 2 10 км 10/4 600 м
[Cb cap Ac As Cs]
+31.3 +23.5 63 +42 +42 опасность
перегрева
1007.0 1006.0 +36.6
15 14.08 Ю 2 10 км 8/4 600 м
[Sc Ac und Cs]
+29.8 +25.6 78 +44 +44 опасность
перегрева
1009.1 1008.1
18 14.08 штиль 0 10 км 8/3 600 м
[Sc Ac und Cs]
+28.5 +24.9 81 +41 +41 опасность
перегрева
1008.3 1007.3
21 14.08 штиль 0 10 км 8/3 600 м
[Sc Ac und Cs]
+28.5 +24.9 81 +41 +41 опасность
перегрева
1008.3 1007.3
00 15.08 Ю 2 10 км 9/3 600 м
[Sc Ac lent Cs]
+27.1 +25.2 89 +39 +40 очень
душно
1007.8 1006.8 +26.6
03 15.08 Ю 1 10 км дымка 8/3 600 м
[Cu med, cong Ac lent Cs]
+30.6 +24.8 71 +43 +52 опасность
перегрева
1008.6 1007.6
06 15.08 З 1 12 км 8/4 600 м
[Cu med, cong Ac lent Cs]
+33.7 +24.2 58 +46 +56 опасность
перегрева
1006.8 1005.9
09 15.08 ЮЗ 4 12 км 9/4 600 м
[Cu med, cong As op Cs]
+34.6 +25.3 59 +49 +51 опасность
перегрева
1003.9 1002.9
12 15.08 штиль 0 10 км 10/4 600 м
[Cb cap Ac As Cs]
+31.5 +25.3 70 +46 +46 опасность
перегрева
1005.5 1004.5 +37.2
15 15.08 ЮВ 2 6000 м гроза, ливневой дождь 10/5 600 м
[Cb cap Ac As Cs]
+26.1 +25.1 94 +37 +37 очень
душно
1008.2 1007.2 5
18 15.08 Ю 2 10 км {гроза} 10/4 600 м
[Sc As op Cs]
+25.7 +24.7 94 +36 +36 очень
душно
1007.2 1006.2 0.2
21 15.08 штиль 0 10 км 5/1 600 м
[Sc Cs]
+25.6 +24.4 93 +36 +36 очень
душно
1005.8 1004.8
00 16.08 штиль 0 10 км 8/4 600 м
[Sc Ac und Cs]
+26.0 +25.1 95 +37 +38 очень
душно
1006.7 1005.7 +24.9 5
03 16.08 штиль 0 10 км 8/3 600 м
[Sc Ac trans Cs]
+30.0 +24.4 72 +42 +51 опасность
перегрева
1007.7 1006.7
06 16.08 штиль 0 12 км 8/3 600 м
[Cu med, cong Ac trans Cs]
+33.2 +25.5 64 +48 +61 опасность
перегрева
1005.3 1004.3
09 16.08 штиль 0 12 км 10/4 600 м
[Cb cap Ac lent Cs]
+32.5 +25.3 66 +47 +50 опасность
перегрева
1002.8 1001.8
12 16.08 штиль 0 10 км слабый дождь {гроза} 10/4 600 м
[Sc Ac lent Cs]
+27.4 +25.5 89 +40 +40 очень
душно
1004.9 1003.9 +34.3 1
15 16.08 штиль 0 10 км {дождь} 10/5 600 м
[Sc Ac und Cs]
+27.5 +26.2 93 +42 +42 опасность
перегрева
1006.8 1005.8 0.4
18 16.08 штиль 0 10 км {дождь} 10/3 600 м
[Sc Ac und Cs]
+26.6 +25.9 96 +40 +40 очень
душно
1005.9 1004.9 2
21 16.08 штиль 0 10 км 10/3 600 м
[Sc As op Cs]
+26.5 +25.5 94 +39 +39 очень
душно
1004.5 1003.5
00 17.08 штиль 0 10 км 10/5 600 м
[Frnb Ac und Cs]
+26.4 +25.4 94 +38 +39 очень
душно
1005.7 1004.7 +25.8
03 17.08 штиль 0 10 км 10/4 600 м
[Sc Ac und Cs]
+29.6 +25.5 79 +44 +50 опасность
перегрева
1007.0 1006.0
06 17.08 штиль 0 10 км слабый дождь 10/5 600 м
[Sc Ac und Cs]
+27.6 +26.0 91 +41 +49 опасность
перегрева
1005.4 1004.4 3
09 17.08 штиль 0 12 км {дождь} 10/5 600 м
[Sc Ac und Cs]
+30.4 +25.6 76 +45 +48 опасность
перегрева
1003.0 1002.0
12 17.08 штиль 0 10 км в посл. час дождь 10/5 600 м
[Cb cap Ac und Cs]
+25.8 +24.6 93 +36 +36 очень
душно
1004.7 1003.7 +31.3 4
15 17.08 штиль 0 4000 м слабый дождь 10/8 600 м
[Frnb As op]
+25.0 +24.1 95 +34 +34 очень
душно
1006.9 1005.9 10
18 17.08 штиль 0 8000 м дымка {дождь} 10/5 600 м
[Sc Ac und Cs]
+25.0 +24.1 95 +34 +34 очень
душно
1006.8 1005.7 0.9
21 17.08 штиль 0 8000 м дымка 10/5 600 м
[Sc Ac und Cs]
+25.7 +25.0 96 +37 +37 очень
душно
1006.0 1005.0
00 18.08 штиль 0 8000 м дымка 9/5 600 м
[Sc Ac lent Cs]
+26.0 +25.1 95 +37 +38 очень
душно
1007.1 1006.1 +24.1 18
03 18.08 ЮЗ 2 10 км 9/4 600 м
[Cu med, cong Ac lent Cs]
+28.5 +22.8 71 +38 +43 очень
душно
1008.6 1007.6
06 18.08 ЮЗ 2 10 км 9/4 600 м
[Cu med, cong Ac lent Cs]
+28.5 +22.8 71 +38 +45 очень
душно
1008.6 1007.6
09 18.08 СЗ 4 12 км 8/5 600 м
[Cu med, cong Ac lent Cs]
+32.6 +22.4 55 +42 +44 опасность
перегрева
1004.8 1003.8
12 18.08 З 1 10 км 8/3 600 м
[Cu med, cong Ac lent Cs]
+30.1 +22.6 64 +39 +39 очень
душно
1006.3 1005.3 +33.5
15 18.08 штиль 0 10 км 8/3 600 м
[Cu med, cong Ac lent Cs]
+28.8 +23.3 72 +39 +39 очень
душно
1009.1 1008.0
18 18.08 Ю 2 10 км 8/3 600 м
[Sc Ac lent Cs]
+27.5 +24.0 81 +38 +38 очень
душно
1008.3 1007.3
21 18.08 штиль 0 10 км 8/3 600 м
[Sc Ac lent Cs]
+26.6 +23.7 84 +36 +36 очень
душно
1007.4 1006.4
00 19.08 штиль 0 10 км 10/4 600 м
[Sc Ac und Cs]
+26.5 +23.9 86 +37 +37 очень
душно
1008.1 1007.1 +26.0
03 19.08 штиль 0 10 км 8/3 600 м
[Sc Ac lent Cs]
+29.5 +23.4 70 +40 +49 очень
душно
1008.6 1007.6
06 19.08 С 3 12 км 8/4 600 м
[Cu med, cong Ac trans Cs]
+32.7 +24.8 63 +46 +53 опасность
перегрева
1007.2 1006.2
09 19.08 СВ 1 12 км 8/3 600 м
[Cu med, cong Ac lent Cs]
+32.3 +25.2 66 +46 +50 опасность
перегрева
1004.9 1003.9
12 19.08 ЮЗ 6 10 км 10/4 600 м
[Cb cap Ac lent Cs]
+28.0 +23.9 78 +39 +39 очень
душно
1007.0 1006.0 +33.0
15 19.08 штиль 0 10 км {дождь} 10/4 600 м
[Sc Ac und Cs]
+27.2 +24.0 83 +38 +38 очень
душно
1009.5 1008.4 0.2
18 19.08 штиль 0 10 км слабый дождь 10/4 600 м
[Sc Ac und Cs]
+26.1 +24.5 91 +37 +37 очень
душно
1007.6 1006.6 0.1
21 19.08 штиль 0 20 км 10/4 600 м
[Sc Ac und Cs]
+26.0 +24.6 92 +37 +37 очень
душно
1007.0 1006.0
00 20.08 штиль 0 10 км 10/4 600 м
[Sc Ac und Cs]
+26.6 +25.6 94 +39 +39 очень
душно
1007.3 1006.2 +25.4
03 20.08 штиль 0 12 км 10/3 600 м
[Cu Sc Ac und Cs]
+30.1 +24.2 71 +42 +49 опасность
перегрева
1008.3 1007.3
06 20.08 ЮЗ 1 12 км 8/5 600 м
[Cu med, cong Ac trans Cs]
+31.5 +24.2 65 +43 +52 опасность
перегрева
1006.1 1005.1
09 20.08 ЮЗ 3 12 км 8/3 600 м
[Cb cap Ac trans Ci ing]
+32.7 +24.1 61 +45 +48 опасность
перегрева
1003.5 1002.5
12 20.08 штиль 0 10 км зарница 10/4 600 м
[Cb cap Ac und Cs]
+28.0 +25.0 84 +40 +40 очень
душно
1004.7 1003.6 +33.7

 

Местоположение метеостанции Suphan Buri (Таиланд): широта 14.47 долгота 100.13 высота над уровнем моря 8 м.

В архиве по умолчанию представлена погода в Suphan Buri за последнюю неделю. Архивные данные за месяц целиком и за предыдущие месяцы, начиная с января 2011 года, Вы можете получить, выбрав интересующий диапазон дат из раскрывающегося списка и нажав кнопку "Ввод!".

Внимание! Время в таблицах - всемирное. Для получения местного времени необходимо прибавить поправку, которая в Suphan Buri равна 7 ч.

Смотрите также архив погоды в соседних городах и на ближайших метеорологических станциях:

Погода в U Thong Agromet (Таиланд) (34 км)
Погода в Nakhonpathom (Таиланд) (53 км)
Погода в Lop Buri (Таиланд) (63 км)
Погода в Ayutthaya (Таиланд) (64 км)
Погода в Pathumthani (Таиланд) (67 км)
Погода в Chainat Agromet (Таиланд) (76 км)
Погода в Don Muang (Таиланд) (79 км)
Погода в Kanchanaburi (Таиланд) (82 км)
Погода в Saraburi (Таиланд) (85 км)
Погода в Bangkok (Таиланд) (94 км)

Пояснения к столбцам:

Ветер - указаны скорость ветра в м/с - средняя за 10 мин, порывы в срок и между сроками (в фигурных скобках) и направление, откуда дует ветер: С - северный, СВ - северо-восточный, В - восточный, ЮВ - юго-восточный, Ю - южный, ЮЗ - юго-западный, З - западный, СЗ - северо-западный.
Видимость - горизонтальная дальность видимости в метрах или километрах. При видимости от 1 до 10 км при отсутствии осадков обычно наблюдается дымка, при ухудшении видимости до 1 км и менее - туман. В сухую погоду видимость может ухудшаться дымом, пылью или мглою.
Явления - указаны атмосферные явления, наблюдавшиеся в срок или в последний час перед сроком; фигурными скобками обозначены явления, наблюдавшиеся между сроками (за 1-3 часа до срока); квадратными скобками обозначены град или гололедные отложения с указанием их диаметра в мм.
Облачность - указаны через наклонную черту общая и нижняя облачность в баллах и высота нижней границы облаков в метрах; квадратными скобками обозначены формы облаков: Ci - перистые, Cs - перисто-слоистые, Cc - перисто-кучевые, Ac - высококучевые, As - высокослоистые, Sc - слоисто-кучевые, Ns - слоисто-дождевые, Cu - кучевые, Cb - кучево-дождевые. Подробнее классификацию облаков см. в Атласе облаков (PDF).
T - Температура воздуха - температура, измеренная на высоте 2 м над землей.
Td - Температура точки росы - температура, при понижении до которой содержащийся в воздухе водяной пар достигнет насыщения.
f - Относительная влажность воздуха - влажноcть воздуха, измеренная на высоте 2 м над землей.
Te - Эффективная температура - температура, которую ощущает одетый по сезону человек в тени. Характеристика душности погоды. При расчете учитывается влияние влажности воздуха и скорости ветра на теплоощущения человека.
Tes - Эффективная температура на солнце - температура, которую ощущает человек, с поправкой на солнечный нагрев. Характеристика знойности погоды. Зависит от высоты солнца над горизонтом, облачности и скорости ветра. Ночью, в пасмурную погоду, а также при ветре 12 м/с и более поправка равна нулю.
P - Атмосферное давление - приведенное к уровню моря атмосферное давление.
Po - Атмосферное давление - измеренное на уровне метеостанции атмосферное давление.
Tmin - Минимальная температура - минимум температуры воздуха на высоте 2 м над землей.
Tmax - Максимальная температура - максимум температуры воздуха на высоте 2 м над землей.
R - Количество осадков - Количество выпавших осадков за период времени, мм. При наведении курсора мыши на число - период времени, за который выпало указанное количество осадков.
R24 - Количество осадков - Количество выпавших осадков за 24 часа, мм.
S - Снежный покров - Высота снежного покрова, см. При наведении курсора мыши на число - состояние снежного покрова и степень покрытия местности в баллах.